Gage, OK

8:37 AM CDT on March 29, 2017 (GMT -0500)
Gage

Weather History for KGAG - February, 2013

Change the Weather History Date:

Wednesday, February 20, 2013

  Actual Average Record
Temperature  
Mean Temperature 37 °F -  
Max Temperature 42 °F 57 °F 90 °F (1981)
Min Temperature 32 °F 27 °F 9 °F (1978)
Degree Days  
Heating Degree Days 28    
Moisture  
Dew Point 32 °F    
Average Humidity 91    
Maximum Humidity 100    
Minimum Humidity 45    
Precipitation  
Precipitation 0.06 in - - ()
Sea Level Pressure  
Sea Level Pressure 29.96 in    
Wind  
Wind Speed 15 mph (SE)    
Max Wind Speed 28 mph    
Max Gust Speed 36 mph    
Visibility 7 miles    
Events Fog , Rain , Snow    
Averages and records for this station are not official NWS values.
T = Trace of Precipitation, MM = Missing Value Source: NWS Daily Summary

Daily Weather History Graph

Daily Weather History Graph

Search for Another Location

Airport or City:

Trip Planner

Search our weather history database for the weather conditions in past years. The results will help you decide how hot, cold, wet, or windy it might be!

Date:

Astronomy

Feb. 20, 2013 Rise Set
Actual Time 7:20 AM CST 6:25 PM CST
Civil Twilight 6:54 AM CST 6:51 PM CST
Nautical Twilight 6:24 AM CST 7:21 PM CST
Astronomical Twilight 5:54 AM CST 7:51 PM CST
Moon 1:53 PM CST (2/20) 3:36 AM CST (2/20)
Length of Visible Light 11h 57m
Length of Day
11h 04m
Waxing Gibbous, 76% of the Moon is Illuminated
Feb 20
Waxing Gibbous
Feb 25
Full
Mar 4
Last Quarter
Mar 11
New
Mar 19
First Quarter

Hourly Weather History & Observations

Time (CST) Temp. Windchill Dew Point Humidity Pressure Visibility Wind Dir Wind Speed Gust Speed Precip Events Conditions
12:53 AM 42.1 °F 36.6 °F 21.9 °F 45% 30.07 in 10.0 mi ESE 9.2 mph - N/A   Overcast
1:53 AM 42.1 °F 34.5 °F 21.9 °F 45% 30.04 in 10.0 mi SE 15.0 mph 21.9 mph N/A   Overcast
2:53 AM 41.0 °F 30.2 °F 26.1 °F 55% 30.05 in 10.0 mi SE 27.6 mph 35.7 mph 0.00 in Rain Light Rain
3:45 AM 35.6 °F 25.5 °F 33.8 °F 93% 30.04 in 10.0 mi SE 17.3 mph 25.3 mph 0.00 in Rain Light Rain
3:53 AM 36.0 °F 26.0 °F 33.1 °F 89% 30.04 in 8.0 mi SE 17.3 mph - 0.00 in Rain Light Rain
4:08 AM 35.6 °F 28.0 °F 33.8 °F 93% 30.02 in 8.0 mi SE 10.4 mph - 0.00 in Rain Light Rain
4:22 AM 35.6 °F 28.0 °F 33.8 °F 93% 30.01 in 8.0 mi SE 10.4 mph 23.0 mph 0.00 in Rain Light Rain
4:53 AM 35.1 °F 25.9 °F 34.0 °F 96% 30.03 in 10.0 mi SE 13.8 mph 19.6 mph 0.01 in Rain Light Rain
5:53 AM 33.1 °F 24.4 °F 32.0 °F 96% 30.01 in 3.0 mi SE 11.5 mph - 0.03 in Snow Light Snow
6:48 AM 33.8 °F 23.2 °F 32.0 °F 93% 29.99 in 10.0 mi SE 17.3 mph 24.2 mph 0.00 in Rain Light Freezing Rain
6:53 AM 33.1 °F 24.9 °F 32.0 °F 96% 30.02 in 10.0 mi ESE 10.4 mph 24.2 mph 0.00 in Rain Light Freezing Rain
7:15 AM 33.8 °F 24.8 °F 32.0 °F 93% 30.01 in 3.0 mi ESE 12.7 mph - 0.00 in Snow Light Snow
7:23 AM 33.8 °F 26.4 °F 32.0 °F 93% 30.01 in 2.0 mi ESE 9.2 mph - 0.00 in Snow Light Snow
7:30 AM 32.0 °F 23.6 °F 32.0 °F 100% 30.01 in 1.0 mi ESE 10.4 mph - 0.01 in Snow Light Snow
7:53 AM 32.0 °F 23.0 °F 32.0 °F 100% 30.05 in 1.0 mi SE 11.5 mph - 0.02 in Snow Light Snow
8:53 AM 33.1 °F 23.9 °F 30.9 °F 92% 30.04 in 9.0 mi SE 12.7 mph - 0.00 in Rain Light Rain
9:19 AM 33.8 °F 25.8 °F 30.2 °F 87% 30.02 in 10.0 mi ESE 10.4 mph - 0.00 in Rain Light Freezing Rain
9:53 AM 33.1 °F 24.4 °F 30.9 °F 92% 30.03 in 10.0 mi SE 11.5 mph - 0.00 in   Overcast
10:29 AM 33.8 °F 24.8 °F 32.0 °F 93% 30.00 in 10.0 mi SE 12.7 mph 19.6 mph N/A   Overcast
10:53 AM 33.1 °F 23.0 °F 32.0 °F 96% 30.02 in 10.0 mi SE 15.0 mph 21.9 mph N/A   Overcast
11:24 AM 33.8 °F 23.9 °F 33.8 °F 100% 29.99 in 1.8 mi SE 15.0 mph - N/A   Overcast
11:43 AM 33.8 °F 23.5 °F 33.8 °F 100% 29.98 in 0.5 mi SE 16.1 mph 23.0 mph N/A Fog Fog
11:53 AM 34.0 °F 23.4 °F 33.1 °F 96% 30.00 in 0.2 mi SE 17.3 mph 24.2 mph N/A Fog Fog
12:53 PM 35.1 °F 24.8 °F 35.1 °F 100% 29.97 in 2.0 mi SE 17.3 mph 24.2 mph N/A   Overcast
1:01 PM 35.6 °F 24.5 °F 35.6 °F 100% 29.94 in 5.0 mi SE 20.7 mph 26.5 mph N/A   Overcast
1:48 PM 37.4 °F 26.4 °F 35.6 °F 93% 29.91 in 10.0 mi SE 23.0 mph 28.8 mph N/A   Overcast
1:53 PM 37.9 °F 27.3 °F 36.0 °F 93% 29.92 in 10.0 mi SE 21.9 mph 28.8 mph N/A   Overcast
2:12 PM 37.4 °F 27.5 °F 35.6 °F 93% 29.90 in 10.0 mi SE 18.4 mph 33.4 mph N/A   Overcast
2:53 PM 37.4 °F 27.8 °F 33.8 °F 87% 29.87 in 10.0 mi SE 17.3 mph 31.1 mph N/A   Overcast
3:53 PM 36.0 °F 25.6 °F 34.0 °F 93% 29.89 in 10.0 mi SE 18.4 mph 31.1 mph 0.00 in Rain Light Rain
4:20 PM 35.6 °F 25.9 °F 33.8 °F 93% 29.86 in 7.0 mi SE 16.1 mph 27.6 mph 0.00 in   Overcast
4:53 PM 35.1 °F 23.5 °F 33.1 °F 92% 29.88 in 6.0 mi SE 21.9 mph 27.6 mph 0.00 in   Overcast
5:53 PM 34.0 °F 23.4 °F 33.1 °F 96% 29.89 in 5.0 mi SE 17.3 mph 24.2 mph N/A   Overcast
6:53 PM 34.0 °F 25.0 °F 33.1 °F 96% 29.90 in 5.0 mi SE 12.7 mph 25.3 mph N/A   Overcast
7:53 PM 34.0 °F 23.4 °F 33.1 °F 96% 29.89 in 8.0 mi SE 17.3 mph 25.3 mph N/A   Overcast
8:02 PM 33.8 °F 23.2 °F 33.8 °F 100% 29.85 in 9.0 mi SE 17.3 mph 26.5 mph N/A   Overcast
8:14 PM 33.8 °F 22.8 °F 33.8 °F 100% 29.85 in 10.0 mi SE 18.4 mph 25.3 mph N/A   Overcast
8:24 PM 33.8 °F 22.8 °F 32.0 °F 93% 29.86 in 10.0 mi SE 18.4 mph 26.5 mph N/A   Overcast
8:53 PM 34.0 °F 23.0 °F 32.0 °F 92% 29.87 in 10.0 mi SE 18.4 mph 27.6 mph N/A   Overcast
9:08 PM 33.8 °F 23.9 °F 32.0 °F 93% 29.84 in 8.0 mi SE 15.0 mph 23.0 mph N/A   Overcast
9:53 PM 33.1 °F 23.0 °F 32.0 °F 96% 29.87 in 9.0 mi ESE 15.0 mph 24.2 mph N/A   Overcast
10:53 PM 33.1 °F 23.4 °F 32.0 °F 96% 29.88 in 4.0 mi ESE 13.8 mph 19.6 mph N/A   Overcast
11:53 PM 33.1 °F 25.5 °F 32.0 °F 96% 29.86 in 4.0 mi ESE 9.2 mph - N/A   Overcast